Time,TemperatureF,DewpointF,PressureIn,WindDirection,WindDirectionDegrees,WindSpeedMPH,WindSpeedGustMPH,Humidity,HourlyPrecipIn,Conditions,Clouds,dailyrainin,SoftwareType,DateUTC
2013-05-03 00:01:00,35.3,32.9,30.34,NW,315,1.8,3.8,91,0.01,,,0.00,WUHU216HW,2013-05-03 05:01:00,
2013-05-03 00:06:00,35.3,32.9,30.35,NW,315,2.9,3.6,91,0.01,,,0.00,WUHU216HW,2013-05-03 05:06:00,
2013-05-03 00:11:00,35.1,32.7,30.35,NNW,338,1.8,3.6,91,0.01,,,0.00,WUHU216HW,2013-05-03 05:11:00,
2013-05-03 00:16:00,35.3,32.9,30.35,NNW,338,1.8,3.1,91,0.01,,,0.00,WUHU216HW,2013-05-03 05:16:00,
2013-05-03 00:21:00,35.3,32.9,30.34,NNW,338,3.1,3.1,91,0.01,,,0.00,WUHU216HW,2013-05-03 05:21:00,
2013-05-03 00:26:00,35.3,32.9,30.34,NNE,23,3.8,3.8,91,0.01,,,0.00,WUHU216HW,2013-05-03 05:26:00,
2013-05-03 00:31:00,35.3,32.9,30.33,ENE,68,2.9,3.8,91,0.01,,,0.00,WUHU216HW,2013-05-03 05:31:00,
2013-05-03 00:36:00,35.3,32.9,30.34,NNE,23,2.2,4.5,91,0.02,,,0.01,WUHU216HW,2013-05-03 05:36:00,
2013-05-03 00:41:00,35.1,32.7,30.33,NNW,338,6.0,8.5,91,0.02,,,0.01,WUHU216HW,2013-05-03 05:41:00,
2013-05-03 00:46:00,34.9,32.5,30.33,NNE,23,5.6,8.5,91,0.01,,,0.01,WUHU216HW,2013-05-03 05:46:00,
2013-05-03 00:51:00,34.9,32.5,30.34,ESE,113,2.9,5.6,91,0.01,,,0.01,WUHU216HW,2013-05-03 05:51:00,
2013-05-03 00:56:00,34.9,32.8,30.33,ENE,68,8.5,8.5,92,0.01,,,0.01,WUHU216HW,2013-05-03 05:56:00,
2013-05-03 01:01:00,34.9,32.8,30.33,North,0,6.5,8.5,92,0.01,,,0.01,WUHU216HW,2013-05-03 06:01:00,
2013-05-03 01:06:00,34.9,32.8,30.33,North,0,6.3,8.5,92,0.02,,,0.02,WUHU216HW,2013-05-03 06:06:00,
2013-05-03 01:11:00,34.7,32.6,30.33,NE,45,3.1,6.3,92,0.02,,,0.02,WUHU216HW,2013-05-03 06:11:00,
2013-05-03 01:16:00,34.9,32.8,30.33,North,0,5.6,6.3,92,0.02,,,0.02,WUHU216HW,2013-05-03 06:16:00,
2013-05-03 01:21:00,34.9,32.8,30.32,NNW,338,3.4,9.8,92,0.02,,,0.02,WUHU216HW,2013-05-03 06:21:00,
2013-05-03 01:26:00,34.9,32.8,30.31,NNW,338,5.4,9.8,92,0.02,,,0.02,WUHU216HW,2013-05-03 06:26:00,
2013-05-03 01:31:00,34.9,32.8,30.32,NE,45,1.6,6.9,92,0.02,,,0.03,WUHU216HW,2013-05-03 06:31:00,
2013-05-03 01:36:00,34.9,32.8,30.31,NE,45,2.7,6.0,92,0.02,,,0.03,WUHU216HW,2013-05-03 06:36:00,
2013-05-03 01:41:00,34.9,32.8,30.31,NNE,23,3.4,4.7,92,0.02,,,0.03,WUHU216HW,2013-05-03 06:41:00,
2013-05-03 01:46:00,34.9,32.8,30.30,NNW,338,3.1,4.3,92,0.02,,,0.03,WUHU216HW,2013-05-03 06:46:00,
2013-05-03 01:51:00,35.1,32.9,30.30,NW,315,3.4,6.5,92,0.02,,,0.03,WUHU216HW,2013-05-03 06:51:00,
2013-05-03 01:56:00,35.1,32.9,30.30,NNW,338,4.0,6.5,92,0.02,,,0.03,WUHU216HW,2013-05-03 06:56:00,
2013-05-03 02:01:00,34.9,32.8,30.30,NW,315,6.9,7.2,92,0.01,,,0.03,WUHU216HW,2013-05-03 07:01:00,
2013-05-03 02:06:00,34.9,32.8,30.31,North,0,6.5,7.2,92,0.01,,,0.03,WUHU216HW,2013-05-03 07:06:00,
2013-05-03 02:11:00,35.1,32.9,30.31,NNW,338,5.4,6.9,92,0.01,,,0.03,WUHU216HW,2013-05-03 07:11:00,
2013-05-03 02:16:00,35.1,32.7,30.30,NNW,338,4.0,6.3,91,0.01,,,0.03,WUHU216HW,2013-05-03 07:16:00,
2013-05-03 02:21:00,35.3,32.9,30.29,NNW,338,4.0,6.3,91,0.02,,,0.03,WUHU216HW,2013-05-03 07:21:00,
2013-05-03 02:26:00,35.3,32.9,30.29,North,0,2.5,4.7,91,0.01,,,0.04,WUHU216HW,2013-05-03 07:26:00,
2013-05-03 02:31:00,35.3,32.9,30.28,NNW,338,5.4,5.4,91,0.01,,,0.04,WUHU216HW,2013-05-03 07:31:00,
2013-05-03 02:36:00,35.3,32.9,30.28,NW,315,3.4,5.4,91,0.01,,,0.04,WUHU216HW,2013-05-03 07:36:00,
2013-05-03 02:41:00,35.5,33.0,30.27,NNW,338,7.4,7.4,91,0.01,,,0.04,WUHU216HW,2013-05-03 07:41:00,
2013-05-03 02:46:00,35.5,33.0,30.27,NE,45,5.1,7.4,91,0.01,,,0.04,WUHU216HW,2013-05-03 07:46:00,
2013-05-03 02:51:00,35.5,32.8,30.27,NNE,23,2.7,5.6,90,0.01,,,0.04,WUHU216HW,2013-05-03 07:51:00,
2013-05-03 02:56:00,35.5,32.8,30.26,NNE,23,2.0,7.2,90,0.02,,,0.05,WUHU216HW,2013-05-03 07:56:00,
2013-05-03 03:01:00,35.5,32.8,30.26,North,0,8.5,8.5,90,0.02,,,0.05,WUHU216HW,2013-05-03 08:01:00,
2013-05-03 03:06:00,35.5,32.8,30.25,North,0,5.1,8.5,90,0.02,,,0.05,WUHU216HW,2013-05-03 08:06:00,
2013-05-03 03:11:00,35.5,32.8,30.25,NNE,23,8.1,9.2,90,0.02,,,0.05,WUHU216HW,2013-05-03 08:11:00,
2013-05-03 03:16:00,35.5,32.8,30.25,NNE,23,6.3,9.2,90,0.02,,,0.05,WUHU216HW,2013-05-03 08:16:00,
2013-05-03 03:21:00,35.5,32.8,30.26,ENE,68,4.9,7.2,90,0.01,,,0.05,WUHU216HW,2013-05-03 08:21:00,
2013-05-03 03:26:00,35.5,32.8,30.27,North,0,1.6,7.2,90,0.01,,,0.05,WUHU216HW,2013-05-03 08:26:00,
2013-05-03 03:31:00,35.6,32.9,30.26,North,0,2.2,4.9,90,0.01,,,0.05,WUHU216HW,2013-05-03 08:31:00,
2013-05-03 03:36:00,35.6,32.9,30.26,NNE,23,4.7,4.7,90,0.01,,,0.05,WUHU216HW,2013-05-03 08:36:00,
2013-05-03 03:41:00,35.6,32.9,30.26,NNE,23,8.5,8.5,90,0.01,,,0.05,WUHU216HW,2013-05-03 08:41:00,
2013-05-03 03:46:00,35.6,32.9,30.26,East,90,4.0,8.5,90,0.01,,,0.05,WUHU216HW,2013-05-03 08:46:00,
2013-05-03 03:51:00,35.6,32.9,30.26,North,0,1.8,6.5,90,0.01,,,0.05,WUHU216HW,2013-05-03 08:51:00,
2013-05-03 03:56:00,35.6,32.9,30.26,North,0,2.5,6.5,90,0.01,,,0.06,WUHU216HW,2013-05-03 08:56:00,
2013-05-03 04:01:00,35.6,32.9,30.26,East,90,3.6,4.5,90,0.01,,,0.06,WUHU216HW,2013-05-03 09:01:00,
2013-05-03 04:06:00,35.6,32.9,30.26,NNW,338,4.7,5.8,90,0.01,,,0.06,WUHU216HW,2013-05-03 09:06:00,
2013-05-03 04:11:00,35.6,32.7,30.26,NNW,338,5.4,5.8,89,0.01,,,0.06,WUHU216HW,2013-05-03 09:11:00,
2013-05-03 04:16:00,35.6,32.7,30.25,NNW,338,3.6,5.4,89,0.01,,,0.06,WUHU216HW,2013-05-03 09:16:00,
2013-05-03 04:21:00,35.6,32.7,30.25,NNW,338,4.0,5.1,89,0.01,,,0.06,WUHU216HW,2013-05-03 09:21:00,
2013-05-03 04:26:00,35.6,32.7,30.24,North,0,1.8,5.1,89,0.01,,,0.06,WUHU216HW,2013-05-03 09:26:00,
2013-05-03 04:31:00,35.6,32.7,30.22,NE,45,4.5,5.8,89,0.01,,,0.06,WUHU216HW,2013-05-03 09:31:00,
2013-05-03 04:36:00,35.6,32.7,30.22,NNW,338,4.9,5.8,89,0.01,,,0.06,WUHU216HW,2013-05-03 09:36:00,
2013-05-03 04:41:00,35.6,32.7,30.23,North,0,1.8,4.9,89,0.02,,,0.07,WUHU216HW,2013-05-03 09:41:00,
2013-05-03 04:46:00,35.6,32.7,30.24,NNW,338,5.1,5.4,89,0.02,,,0.07,WUHU216HW,2013-05-03 09:46:00,
2013-05-03 04:51:00,35.6,32.4,30.24,North,0,4.0,5.4,88,0.02,,,0.07,WUHU216HW,2013-05-03 09:51:00,
2013-05-03 04:56:00,35.6,32.4,30.23,NW,315,3.8,6.0,88,0.01,,,0.07,WUHU216HW,2013-05-03 09:56:00,
2013-05-03 05:01:00,35.6,32.7,30.23,NNW,338,3.1,6.0,89,0.01,,,0.07,WUHU216HW,2013-05-03 10:01:00,
2013-05-03 05:06:00,35.6,32.4,30.23,NNW,338,2.5,5.6,88,0.01,,,0.07,WUHU216HW,2013-05-03 10:06:00,
2013-05-03 05:11:00,35.6,32.7,30.23,NNE,23,4.7,5.6,89,0.01,,,0.07,WUHU216HW,2013-05-03 10:11:00,
2013-05-03 05:16:00,35.8,32.9,30.24,NNW,338,1.1,6.3,89,0.01,,,0.07,WUHU216HW,2013-05-03 10:16:00,
2013-05-03 05:21:00,35.8,32.9,30.24,NNW,338,3.1,6.3,89,0.01,,,0.07,WUHU216HW,2013-05-03 10:21:00,
2013-05-03 05:26:00,35.8,32.6,30.24,NNE,23,5.4,5.4,88,0.01,,,0.07,WUHU216HW,2013-05-03 10:26:00,
2013-05-03 05:31:00,35.8,32.6,30.23,NW,315,3.4,5.4,88,0.01,,,0.07,WUHU216HW,2013-05-03 10:31:00,
2013-05-03 05:36:00,35.8,32.6,30.23,NNW,338,2.2,6.3,88,0.01,,,0.07,WUHU216HW,2013-05-03 10:36:00,
2013-05-03 05:41:00,35.8,32.6,30.23,NNE,23,6.5,6.5,88,0.01,,,0.07,WUHU216HW,2013-05-03 10:41:00,
2013-05-03 05:46:00,36.0,32.8,30.23,North,0,2.2,6.5,88,0.01,,,0.08,WUHU216HW,2013-05-03 10:46:00,
2013-05-03 05:51:00,36.0,32.8,30.23,NW,315,4.7,5.8,88,0.01,,,0.08,WUHU216HW,2013-05-03 10:51:00,
2013-05-03 05:56:00,36.0,32.4,30.23,WNW,293,4.7,6.9,87,0.01,,,0.08,WUHU216HW,2013-05-03 10:56:00,
2013-05-03 06:01:00,36.0,32.4,30.23,North,0,3.4,6.9,87,0.01,,,0.08,WUHU216HW,2013-05-03 11:01:00,
2013-05-03 06:06:00,36.0,32.4,30.22,NNW,338,7.6,7.6,87,0.01,,,0.08,WUHU216HW,2013-05-03 11:06:00,
2013-05-03 06:11:00,36.0,32.4,30.23,North,0,4.7,7.6,87,0.01,,,0.08,WUHU216HW,2013-05-03 11:11:00,
2013-05-03 06:16:00,36.0,32.4,30.23,North,0,6.3,6.9,87,0.01,,,0.08,WUHU216HW,2013-05-03 11:16:00,
2013-05-03 06:21:00,36.0,32.8,30.24,North,0,5.8,8.9,88,0.02,,,0.09,WUHU216HW,2013-05-03 11:21:00,
2013-05-03 06:26:00,36.0,32.8,30.23,North,0,6.9,8.9,88,0.02,,,0.09,WUHU216HW,2013-05-03 11:26:00,
2013-05-03 06:31:00,36.0,32.4,30.22,North,0,6.3,9.4,87,0.02,,,0.09,WUHU216HW,2013-05-03 11:31:00,
2013-05-03 06:36:00,36.0,32.8,30.23,NNW,338,4.5,9.4,88,0.02,,,0.09,WUHU216HW,2013-05-03 11:36:00,
2013-05-03 06:41:00,36.0,32.4,30.23,WNW,293,7.6,8.1,87,0.01,,,0.09,WUHU216HW,2013-05-03 11:41:00,
2013-05-03 06:46:00,36.0,32.4,30.23,NW,315,6.5,7.6,87,0.01,,,0.09,WUHU216HW,2013-05-03 11:46:00,
2013-05-03 06:51:00,36.0,32.4,30.23,NNW,338,5.6,7.6,87,0.01,,,0.09,WUHU216HW,2013-05-03 11:51:00,
2013-05-03 06:56:00,36.0,32.4,30.23,North,0,6.3,9.2,87,0.01,,,0.09,WUHU216HW,2013-05-03 11:56:00,
2013-05-03 07:01:00,36.0,32.4,30.23,North,0,4.9,9.2,87,0.02,,,0.10,WUHU216HW,2013-05-03 12:01:00,
2013-05-03 07:06:00,36.0,32.4,30.23,NW,315,5.4,7.4,87,0.02,,,0.10,WUHU216HW,2013-05-03 12:06:00,
2013-05-03 07:11:00,36.2,32.6,30.22,NW,315,5.4,7.6,87,0.02,,,0.10,WUHU216HW,2013-05-03 12:11:00,
2013-05-03 07:16:00,36.2,32.6,30.22,NNW,338,8.9,8.9,87,0.02,,,0.10,WUHU216HW,2013-05-03 12:16:00,
2013-05-03 07:21:00,36.2,32.6,30.22,North,0,4.9,8.9,87,0.02,,,0.11,WUHU216HW,2013-05-03 12:21:00,
2013-05-03 07:26:00,36.2,32.6,30.23,NNW,338,7.8,7.8,87,0.02,,,0.11,WUHU216HW,2013-05-03 12:26:00,
2013-05-03 07:31:00,36.2,32.6,30.23,NNW,338,7.2,7.8,87,0.02,,,0.11,WUHU216HW,2013-05-03 12:31:00,
2013-05-03 07:36:00,36.2,32.6,30.23,NNW,338,5.8,8.1,87,0.02,,,0.11,WUHU216HW,2013-05-03 12:36:00,
2013-05-03 07:41:00,36.4,32.8,30.23,NNW,338,7.6,8.5,87,0.02,,,0.11,WUHU216HW,2013-05-03 12:41:00,
2013-05-03 07:46:00,36.4,32.5,30.22,NW,315,4.5,8.5,86,0.02,,,0.11,WUHU216HW,2013-05-03 12:46:00,
2013-05-03 07:51:00,36.5,32.9,30.22,North,0,7.4,7.4,87,0.02,,,0.11,WUHU216HW,2013-05-03 12:51:00,
2013-05-03 07:56:00,36.5,32.7,30.21,NNW,338,9.8,11.4,86,0.03,,,0.11,WUHU216HW,2013-05-03 12:56:00,
2013-05-03 08:01:00,36.7,32.9,30.19,East,90,8.3,11.4,86,0.02,,,0.12,WUHU216HW,2013-05-03 13:01:00,
2013-05-03 08:06:00,36.9,33.0,30.21,NNW,338,8.5,11.4,86,0.02,,,0.12,WUHU216HW,2013-05-03 13:06:00,
2013-05-03 08:11:00,36.9,33.0,30.21,NNW,338,9.4,9.4,86,0.02,,,0.12,WUHU216HW,2013-05-03 13:11:00,
2013-05-03 08:16:00,36.9,33.0,30.21,NNW,338,9.4,9.4,86,0.02,,,0.12,WUHU216HW,2013-05-03 13:16:00,
2013-05-03 14:52:00,38.5,35.3,30.10,NW,315,6.9,6.9,88,0.03,,,0.12,WUHU216HW,2013-05-03 19:52:00,
2013-05-03 14:57:00,38.2,34.9,30.11,NNW,338,3.8,8.7,88,0.03,,,0.20,WUHU216HW,2013-05-03 19:57:00,
2013-05-03 15:02:00,38.3,35.1,30.11,NNE,23,5.6,8.7,88,0.03,,,0.21,WUHU216HW,2013-05-03 20:02:00,
2013-05-03 15:07:00,38.3,35.1,30.10,North,0,13.4,13.4,88,0.03,,,0.21,WUHU216HW,2013-05-03 20:07:00,
2013-05-03 15:12:00,38.2,34.9,30.09,NNE,23,5.1,13.4,88,0.03,,,0.21,WUHU216HW,2013-05-03 20:12:00,
2013-05-03 15:17:00,38.2,35.2,30.09,NNW,338,7.6,8.5,89,0.03,,,0.21,WUHU216HW,2013-05-03 20:17:00,
2013-05-03 15:22:00,38.3,35.4,30.09,NNE,23,6.3,8.5,89,0.03,,,0.22,WUHU216HW,2013-05-03 20:22:00,
2013-05-03 15:27:00,38.3,35.4,30.09,North,0,3.4,6.5,89,0.03,,,0.22,WUHU216HW,2013-05-03 20:27:00,
2013-05-03 15:32:00,38.5,35.6,30.09,ENE,68,3.4,6.5,89,0.03,,,0.22,WUHU216HW,2013-05-03 20:32:00,
2013-05-03 15:37:00,38.3,35.4,30.09,NNW,338,4.0,5.6,89,0.03,,,0.22,WUHU216HW,2013-05-03 20:37:00,
2013-05-03 15:42:00,38.3,35.4,30.09,NNW,338,6.7,6.7,89,0.03,,,0.22,WUHU216HW,2013-05-03 20:42:00,
2013-05-03 15:47:00,38.3,35.4,30.09,North,0,1.8,6.7,89,0.03,,,0.23,WUHU216HW,2013-05-03 20:47:00,
2013-05-03 15:52:00,38.2,35.2,30.08,NE,45,3.4,9.4,89,0.03,,,0.23,WUHU216HW,2013-05-03 20:52:00,
2013-05-03 15:57:00,37.8,34.8,30.08,North,0,8.3,9.4,89,0.02,,,0.23,WUHU216HW,2013-05-03 20:57:00,
2013-05-03 16:02:00,37.4,34.5,30.08,NNW,338,7.8,8.3,89,0.02,,,0.23,WUHU216HW,2013-05-03 21:02:00,
2013-05-03 16:07:00,37.1,33.9,30.08,NNW,338,6.0,8.1,88,0.04,,,0.24,WUHU216HW,2013-05-03 21:07:00,
2013-05-03 16:12:00,37.1,33.9,30.08,NNE,23,2.7,8.1,88,0.04,,,0.25,WUHU216HW,2013-05-03 21:12:00,
2013-05-03 16:17:00,37.1,34.1,30.07,NNW,338,5.4,8.9,89,0.03,,,0.25,WUHU216HW,2013-05-03 21:17:00,
2013-05-03 16:22:00,37.3,34.3,30.08,NNE,23,6.9,8.9,89,0.03,,,0.25,WUHU216HW,2013-05-03 21:22:00,
2013-05-03 16:27:00,37.3,34.3,30.08,NNW,338,4.0,9.8,89,0.03,,,0.25,WUHU216HW,2013-05-03 21:27:00,
2013-05-03 16:32:00,37.4,34.7,30.08,NE,45,4.3,9.8,90,0.04,,,0.26,WUHU216HW,2013-05-03 21:32:00,
2013-05-03 16:37:00,37.8,35.4,30.08,NW,315,7.6,7.6,91,0.04,,,0.26,WUHU216HW,2013-05-03 21:37:00,
2013-05-03 16:42:00,37.8,35.1,30.08,NE,45,2.0,8.5,90,0.03,,,0.26,WUHU216HW,2013-05-03 21:42:00,
2013-05-03 16:47:00,37.8,35.1,30.08,NNE,23,4.9,8.5,90,0.03,,,0.26,WUHU216HW,2013-05-03 21:47:00,
2013-05-03 16:52:00,38.0,35.3,30.07,NNW,338,5.6,7.6,90,0.04,,,0.27,WUHU216HW,2013-05-03 21:52:00,
2013-05-03 16:57:00,37.8,35.1,30.07,NW,315,2.5,7.6,90,0.04,,,0.27,WUHU216HW,2013-05-03 21:57:00,
2013-05-03 17:02:00,37.8,35.1,30.06,NNW,338,6.9,9.8,90,0.03,,,0.27,WUHU216HW,2013-05-03 22:02:00,
2013-05-03 17:07:00,37.8,35.1,30.06,NNE,23,8.9,9.8,90,0.02,,,0.27,WUHU216HW,2013-05-03 22:07:00,
2013-05-03 17:12:00,37.8,35.1,30.07,North,0,6.0,8.9,90,0.02,,,0.27,WUHU216HW,2013-05-03 22:12:00,
2013-05-03 17:17:00,37.6,34.9,30.07,NNW,338,3.8,7.2,90,0.02,,,0.27,WUHU216HW,2013-05-03 22:17:00,
2013-05-03 17:22:00,37.6,34.9,30.07,NW,315,2.5,7.2,90,0.02,,,0.27,WUHU216HW,2013-05-03 22:22:00,
2013-05-03 17:27:00,37.4,34.5,30.07,NNW,338,6.3,8.5,89,0.01,,,0.27,WUHU216HW,2013-05-03 22:27:00,
2013-05-03 17:32:00,37.4,34.5,30.07,SE,135,4.0,8.5,89,0.01,,,0.27,WUHU216HW,2013-05-03 22:32:00,
2013-05-03 17:37:00,37.3,34.3,30.07,NW,315,7.4,7.4,89,0.01,,,0.27,WUHU216HW,2013-05-03 22:37:00,
2013-05-03 17:42:00,37.1,34.1,30.06,NNW,338,4.0,7.4,89,0.01,,,0.27,WUHU216HW,2013-05-03 22:42:00,
2013-05-03 17:47:00,37.1,34.1,30.06,North,0,5.6,7.4,89,0.00,,,0.27,WUHU216HW,2013-05-03 22:47:00,
2013-05-03 17:52:00,36.9,33.9,30.07,North,0,4.7,9.8,89,0.01,,,0.27,WUHU216HW,2013-05-03 22:52:00,
2013-05-03 17:57:00,36.7,33.8,30.07,NNE,23,7.4,9.8,89,0.01,,,0.28,WUHU216HW,2013-05-03 22:57:00,
2013-05-03 18:02:00,36.7,33.8,30.07,North,0,6.3,9.6,89,0.01,,,0.28,WUHU216HW,2013-05-03 23:02:00,
2013-05-03 18:07:00,36.7,33.8,30.07,NNE,23,5.4,9.6,89,0.01,,,0.28,WUHU216HW,2013-05-03 23:07:00,
2013-05-03 18:12:00,36.7,33.8,30.07,West,270,4.0,7.6,89,0.01,,,0.28,WUHU216HW,2013-05-03 23:12:00,
2013-05-03 18:17:00,36.7,33.8,30.07,NNE,23,3.6,8.7,89,0.01,,,0.28,WUHU216HW,2013-05-03 23:17:00,
2013-05-03 18:22:00,36.7,33.8,30.07,NNW,338,6.7,8.7,89,0.01,,,0.28,WUHU216HW,2013-05-03 23:22:00,
2013-05-03 18:27:00,36.7,33.8,30.07,NW,315,5.8,6.9,89,0.01,,,0.28,WUHU216HW,2013-05-03 23:27:00,
2013-05-03 18:32:00,36.7,33.8,30.08,North,0,6.5,6.9,89,0.01,,,0.28,WUHU216HW,2013-05-03 23:32:00,
2013-05-03 18:37:00,36.7,33.8,30.08,North,0,8.1,8.5,89,0.01,,,0.28,WUHU216HW,2013-05-03 23:37:00,
2013-05-03 18:42:00,36.7,33.8,30.08,North,0,5.4,8.5,89,0.02,,,0.29,WUHU216HW,2013-05-03 23:42:00,
2013-05-03 18:47:00,36.7,33.8,30.07,NNE,23,5.4,5.8,89,0.02,,,0.29,WUHU216HW,2013-05-03 23:47:00,
2013-05-03 18:52:00,36.5,33.8,30.06,North,0,7.6,8.5,90,0.01,,,0.29,WUHU216HW,2013-05-03 23:52:00,
2013-05-03 18:57:00,36.5,33.8,30.06,NE,45,1.6,8.5,90,0.01,,,0.29,WUHU216HW,2013-05-03 23:57:00,
2013-05-03 19:02:00,36.5,33.8,30.05,North,0,3.6,7.6,90,0.01,,,0.29,WUHU216HW,2013-05-04 00:02:00,
2013-05-03 19:07:00,36.5,33.8,30.06,NNW,338,4.0,5.1,90,0.01,,,0.29,WUHU216HW,2013-05-04 00:07:00,
2013-05-03 19:12:00,36.5,33.8,30.05,North,0,4.7,5.4,90,0.01,,,0.29,WUHU216HW,2013-05-04 00:12:00,
2013-05-03 19:17:00,36.5,33.8,30.06,NW,315,5.4,6.7,90,0.01,,,0.29,WUHU216HW,2013-05-04 00:17:00,
2013-05-03 19:22:00,36.4,33.7,30.05,NNW,338,6.9,9.4,90,0.02,,,0.30,WUHU216HW,2013-05-04 00:22:00,
2013-05-03 19:27:00,36.4,33.7,30.04,NW,315,4.0,9.4,90,0.02,,,0.30,WUHU216HW,2013-05-04 00:27:00,
2013-05-03 19:32:00,36.4,33.9,30.03,NNW,338,13.2,13.2,91,0.03,,,0.30,WUHU216HW,2013-05-04 00:32:00,
2013-05-03 19:37:00,36.2,33.8,30.03,NNW,338,4.7,13.2,91,0.02,,,0.31,WUHU216HW,2013-05-04 00:37:00,
2013-05-03 19:42:00,36.2,33.8,30.04,NNW,338,7.6,13.2,91,0.02,,,0.31,WUHU216HW,2013-05-04 00:42:00,
2013-05-03 19:47:00,36.0,33.6,30.03,WNW,293,7.2,13.2,91,0.02,,,0.31,WUHU216HW,2013-05-04 00:47:00,
2013-05-03 19:52:00,35.8,33.4,30.03,NNW,338,6.3,10.1,91,0.02,,,0.31,WUHU216HW,2013-05-04 00:52:00,
2013-05-03 19:57:00,36.0,33.6,30.03,NNW,338,8.7,8.7,91,0.02,,,0.31,WUHU216HW,2013-05-04 00:57:00,
2013-05-03 20:02:00,36.0,33.6,30.02,North,0,7.6,11.0,91,0.02,,,0.31,WUHU216HW,2013-05-04 01:02:00,
2013-05-03 20:07:00,35.8,33.4,30.03,North,0,4.7,11.0,91,0.02,,,0.31,WUHU216HW,2013-05-04 01:07:00,
2013-05-03 20:12:00,35.8,33.4,30.03,NNW,338,8.5,10.3,91,0.02,,,0.31,WUHU216HW,2013-05-04 01:12:00,
2013-05-03 20:17:00,35.8,33.7,30.03,North,0,7.6,10.3,92,0.01,,,0.31,WUHU216HW,2013-05-04 01:17:00,
2013-05-03 20:22:00,35.8,33.7,30.03,NE,45,6.7,8.3,92,0.01,,,0.31,WUHU216HW,2013-05-04 01:22:00,
2013-05-03 20:27:00,35.6,33.5,30.03,ENE,68,6.7,9.8,92,0.01,,,0.31,WUHU216HW,2013-05-04 01:27:00,
2013-05-03 20:32:00,35.6,33.5,30.03,NNW,338,8.5,9.8,92,0.00,,,0.31,WUHU216HW,2013-05-04 01:32:00,
2013-05-03 20:37:00,35.8,33.7,30.02,NNW,338,4.0,8.5,92,0.00,,,0.31,WUHU216HW,2013-05-04 01:37:00,
2013-05-03 20:42:00,35.8,33.7,30.02,NE,45,3.4,6.9,92,0.00,,,0.31,WUHU216HW,2013-05-04 01:42:00,
2013-05-03 20:47:00,36.0,33.8,30.02,NNW,338,3.4,9.8,92,0.00,,,0.31,WUHU216HW,2013-05-04 01:47:00,
2013-05-03 20:52:00,36.0,33.8,30.02,NNW,338,3.6,9.8,92,0.00,,,0.31,WUHU216HW,2013-05-04 01:52:00,
2013-05-03 20:57:00,36.2,33.8,30.02,NNW,338,6.9,7.4,91,0.00,,,0.31,WUHU216HW,2013-05-04 01:57:00,
2013-05-03 21:02:00,36.2,33.8,30.02,NNW,338,5.4,6.9,91,0.00,,,0.31,WUHU216HW,2013-05-04 02:02:00,
2013-05-03 21:07:00,36.4,33.7,30.02,North,0,8.9,11.4,90,0.00,,,0.31,WUHU216HW,2013-05-04 02:07:00,
2013-05-03 21:12:00,36.4,33.7,30.01,North,0,4.7,11.4,90,0.00,,,0.31,WUHU216HW,2013-05-04 02:12:00,
2013-05-03 21:17:00,36.4,33.7,30.01,North,0,9.6,9.6,90,0.00,,,0.31,WUHU216HW,2013-05-04 02:17:00,
2013-05-03 21:22:00,36.4,33.4,30.02,North,0,5.6,12.1,89,0.00,,,0.31,WUHU216HW,2013-05-04 02:22:00,
2013-05-03 21:27:00,36.4,33.1,30.02,WNW,293,8.5,12.1,88,0.00,,,0.31,WUHU216HW,2013-05-04 02:27:00,
2013-05-03 21:32:00,36.4,33.1,30.01,North,0,7.4,10.5,88,0.00,,,0.31,WUHU216HW,2013-05-04 02:32:00,
2013-05-03 21:37:00,36.2,32.6,30.00,NW,315,9.6,9.8,87,0.00,,,0.31,WUHU216HW,2013-05-04 02:37:00,
2013-05-03 21:42:00,36.2,32.6,30.00,North,0,8.3,11.4,87,0.00,,,0.31,WUHU216HW,2013-05-04 02:42:00,
2013-05-03 21:47:00,36.0,32.4,30.00,North,0,10.5,11.4,87,0.00,,,0.31,WUHU216HW,2013-05-04 02:47:00,
2013-05-03 21:52:00,36.0,32.4,29.99,North,0,10.5,12.1,87,0.00,,,0.31,WUHU216HW,2013-05-04 02:52:00,
2013-05-03 21:57:00,35.8,32.2,30.00,NW,315,6.9,12.1,87,0.00,,,0.31,WUHU216HW,2013-05-04 02:57:00,
2013-05-03 22:02:00,36.0,32.4,29.99,NW,315,4.7,10.5,87,0.00,,,0.31,WUHU216HW,2013-05-04 03:02:00,
2013-05-03 22:07:00,35.8,32.2,29.99,North,0,7.4,8.3,87,0.00,,,0.31,WUHU216HW,2013-05-04 03:07:00,
2013-05-03 22:12:00,35.8,32.2,29.99,ENE,68,6.9,8.5,87,0.00,,,0.31,WUHU216HW,2013-05-04 03:12:00,
2013-05-03 22:17:00,35.8,32.2,29.99,NW,315,3.4,8.5,87,0.00,,,0.31,WUHU216HW,2013-05-04 03:17:00,
2013-05-03 22:22:00,35.8,32.2,29.99,NE,45,2.5,7.2,87,0.00,,,0.31,WUHU216HW,2013-05-04 03:22:00,
2013-05-03 22:27:00,35.8,32.2,30.00,NE,45,8.5,8.5,87,0.00,,,0.31,WUHU216HW,2013-05-04 03:27:00,
2013-05-03 22:32:00,35.8,32.6,30.00,NW,315,5.4,9.4,88,0.00,,,0.31,WUHU216HW,2013-05-04 03:32:00,
2013-05-03 22:37:00,35.6,32.0,30.00,North,0,5.4,9.4,87,0.00,,,0.31,WUHU216HW,2013-05-04 03:37:00,
2013-05-03 22:42:00,35.6,32.0,30.00,NE,45,2.9,6.9,87,0.00,,,0.31,WUHU216HW,2013-05-04 03:42:00,
2013-05-03 22:47:00,35.8,32.2,30.00,North,0,7.8,7.8,87,0.00,,,0.31,WUHU216HW,2013-05-04 03:47:00,
2013-05-03 22:52:00,35.6,32.0,29.99,NNE,23,11.0,11.0,87,0.00,,,0.31,WUHU216HW,2013-05-04 03:52:00,
2013-05-03 22:57:00,35.6,32.0,29.99,East,90,1.1,11.0,87,0.00,,,0.31,WUHU216HW,2013-05-04 03:57:00,
2013-05-03 23:01:00,35.6,32.0,29.98,North,0,4.5,11.0,87,0.00,,,0.31,WUHU216HW,2013-05-04 04:01:00,
2013-05-03 23:06:00,35.6,32.0,29.98,NW,315,5.4,9.8,87,0.00,,,0.31,WUHU216HW,2013-05-04 04:06:00,
2013-05-03 23:11:00,35.6,32.0,29.97,NNE,23,7.2,9.8,87,0.00,,,0.31,WUHU216HW,2013-05-04 04:11:00,
2013-05-03 23:16:00,35.6,32.0,29.97,North,0,6.0,7.6,87,0.00,,,0.31,WUHU216HW,2013-05-04 04:16:00,
2013-05-03 23:21:00,35.6,32.4,29.97,North,0,4.0,6.3,88,0.00,,,0.31,WUHU216HW,2013-05-04 04:21:00,
2013-05-03 23:26:00,35.6,32.4,29.97,North,0,3.4,6.9,88,0.00,,,0.31,WUHU216HW,2013-05-04 04:26:00,
2013-05-03 23:31:00,35.8,32.6,29.97,NNE,23,7.6,8.5,88,0.00,,,0.31,WUHU216HW,2013-05-04 04:31:00,
2013-05-03 23:36:00,35.6,32.4,29.96,NNW,338,4.7,8.5,88,0.00,,,0.31,WUHU216HW,2013-05-04 04:36:00,
2013-05-03 23:41:00,35.6,32.4,29.96,NE,45,3.4,8.5,88,0.00,,,0.31,WUHU216HW,2013-05-04 04:41:00,
2013-05-03 23:46:00,35.6,32.4,29.96,NNW,338,4.7,6.3,88,0.00,,,0.31,WUHU216HW,2013-05-04 04:46:00,
2013-05-03 23:51:00,35.6,32.4,29.95,NW,315,7.8,8.5,88,0.00,,,0.31,WUHU216HW,2013-05-04 04:51:00,
2013-05-03 23:56:00,35.6,32.7,29.96,North,0,5.6,8.9,89,0.00,,,0.00,WUHU216HW,2013-05-04 04:56:00,